[[{"header":{"parameterUnit":"m.s-1","parameterCategory":1,"la1":30.2991,"la2":30.254,"lo1":-89.0895,"lo2":-89.0444,"dy":0.0017,"dx":0.0017,"nx":28,"ny":28,"refTime":"2025-09-05T03:00:00:Z","depth":0,"parameterNumber":2,"parameterNumberName":"U-component_of_WINDS"},"data":[0,0,0,0,0,0,0,0,0,0,0,0,0,0,0,0,0,0,0,0,0,0,0,0,0,0,0,0,0,0,0,0,0,0,0,0,0,0,0,0,0,0,0,0,0,0,0,0,0,0,0,0,0,0,0,0,0,0,-1.399,-1.3991,0,-1.4083,-1.4084,-1.4085,-1.4101,-1.41,-1.4099,-1.4098,-1.4195,-1.4199,-1.4202,0,0,0,0,0,0,0,0,0,0,0,0,0,-1.3825,-1.3828,-1.399,-1.3991,-1.3992,-1.4083,-1.4084,-1.4086,-1.4101,-1.41,-1.4099,-1.4098,-1.4194,-1.4198,-1.4202,0,0,0,0,0,0,0,0,0,0,0,0,0,-1.3906,-1.3829,-1.3989,-1.401,-1.4013,-1.4083,-1.4084,-1.4086,-1.4101,-1.41,-1.4099,-1.4098,-1.4193,-1.4198,-1.4203,-1.4258,0,0,-1.4218,-1.422,0,0,0,0,0,0,0,0,-1.3901,-1.3912,-1.4006,-1.4009,-1.4012,-1.4079,-1.4062,-1.4144,-1.4101,-1.4068,-1.4098,-1.4097,-1.4158,-1.4166,-1.4186,-1.4263,-1.4267,-1.4219,-1.4222,-1.4224,-1.4225,0,0,0,0,0,0,0,-1.3895,-1.3908,-1.4027,-1.4008,-1.4011,-1.4016,-1.4026,-1.4078,-1.4119,-1.4071,-1.4072,-1.4083,-1.4159,-1.4181,-1.4188,-1.4268,-1.4218,-1.4223,-1.4226,-1.4228,-1.4396,-1.4398,0,0,0,0,0,0,-1.3886,-1.3903,-1.4024,-1.4029,-1.3953,-1.402,-1.4031,-1.4059,-1.4118,-1.4126,-1.4084,-1.4083,-1.4173,-1.4182,-1.4192,-1.4261,-1.4224,-1.4228,-1.4231,-1.4395,-1.4397,-1.4398,0,0,0,0,0,0,-1.3882,-1.3896,-1.402,-1.3967,-1.3983,-1.4024,-1.4055,-1.4061,-1.4083,-1.4128,-1.4135,-1.4098,-1.4172,-1.4185,-1.4242,-1.4265,-1.4231,-1.4235,-1.4393,-1.4395,-1.4397,-1.4399,0,0,0,0,0,0,-1.3877,-1.3895,-1.3916,-1.3967,-1.3985,-1.4068,-1.4057,-1.4064,-1.4092,-1.4092,-1.4144,-1.4151,-1.4172,-1.4234,-1.4247,-1.4271,-1.4239,-1.4391,-1.4394,-1.4397,-1.4398,-1.4401,-1.4405,0,0,0,0,0,-1.3872,-1.3913,-1.3917,-1.3932,-1.4012,-1.4069,-1.408,-1.4103,-1.4093,-1.4115,-1.4144,-1.4149,-1.426,-1.424,-1.4254,-1.428,-1.439,-1.4393,-1.4397,-1.4396,-1.4401,-1.4405,0,0,0,0,0,0,-1.3864,-1.392,-1.3925,-1.3984,-1.4022,-1.4071,-1.41,-1.4107,-1.4149,-1.4147,-1.4175,-1.4186,-1.4242,-1.4267,-1.4243,-1.4337,-1.4324,-1.4331,-1.4319,-1.4324,-1.4327,-1.432,-1.4243,0,0,0,0,0,-1.3869,-1.391,-1.3957,-1.4004,-1.4023,-1.4058,-1.4083,-1.4098,-1.4139,-1.4155,-1.4188,-1.4227,-1.427,-1.4299,-1.4341,-1.4401,-1.4413,-1.4426,-1.443,-1.4433,-1.4438,-1.4472,-1.4479,-1.4409,-1.4409,-1.4409,0,0,-1.388,-1.3916,-1.394,-1.4004,-1.4035,-1.4077,-1.4071,-1.4116,-1.4148,-1.4162,-1.4217,-1.4243,-1.4289,-1.4348,-1.4375,-1.437,-1.446,-1.4437,-1.4439,-1.4443,-1.4477,-1.4483,-1.4489,-1.4411,-1.4411,-1.4411,0,0,-1.3921,-1.3952,-1.3996,-1.4027,-1.4074,-1.4097,-1.4107,-1.4156,-1.4174,-1.423,-1.4242,-1.428,-1.4355,-1.4387,-1.4413,-1.4468,-1.4475,-1.4481,-1.45,-1.4534,-1.4539,-1.4544,-1.4564,-1.4571,-1.4486,-1.4486,-1.4486,0,-1.3929,-1.3993,-1.4017,-1.4062,-1.409,-1.4104,-1.4149,-1.4178,-1.4236,-1.4256,-1.4249,-1.4343,-1.4375,-1.4442,-1.4455,-1.4476,-1.4489,-1.4475,-1.4536,-1.4542,-1.4547,-1.4566,-1.4574,-1.4487,-1.4487,-1.4487,-1.4487,0,-1.4001,-1.4045,-1.4074,-1.413,-1.4162,-1.4206,-1.4237,-1.4266,-1.4279,-1.4303,-1.4361,-1.44,-1.4451,-1.4468,-1.448,-1.4537,-1.4532,-1.4531,-1.4518,-1.4554,-1.4572,-1.458,-1.4488,-1.4487,-1.4487,-1.4487,0,0,-1.4039,-1.4109,-1.4119,-1.4145,-1.4198,-1.4233,-1.4278,-1.4328,-1.4353,-1.4393,-1.4432,-1.4495,-1.4494,-1.4524,-1.454,-1.457,-1.4612,-1.4565,-1.4566,-1.4572,-1.4677,-1.4678,-1.4687,-1.4616,-1.4618,-1.4619,-1.4674,0,-1.4087,-1.4168,-1.4192,-1.426,-1.4301,-1.4316,-1.4356,-1.4393,-1.4417,-1.4456,-1.4483,-1.4528,-1.4523,-1.4541,-1.4571,-1.46,-1.4633,-1.4597,-1.4654,-1.4655,-1.4642,-1.4696,-1.4697,-1.4747,-1.4681,-1.4682,-1.4683,0,-1.4154,-1.4195,-1.4268,-1.4316,-1.4335,-1.437,-1.4418,-1.4455,-1.4498,-1.4513,-1.4547,-1.4561,-1.461,-1.4595,-1.4663,-1.4637,-1.4662,-1.468,-1.4683,-1.4689,-1.4671,-1.4704,-1.4763,-1.4771,-1.4695,-1.4694,-1.4693,0,-1.4175,-1.4249,-1.4302,-1.4324,-1.4382,-1.4407,-1.4432,-1.4474,-1.4502,-1.4545,-1.4564,-1.4611,-1.4637,-1.4674,-1.4701,-1.4687,-1.4767,-1.4754,-1.4781,-1.4781,-1.4797,-1.4796,-1.4861,-1.4813,-1.4813,-1.4813,-1.4813,0,-1.4227,-1.427,-1.4313,-1.4345,-1.4395,-1.4422,-1.4471,-1.4497,-1.4535,-1.4573,-1.4589,-1.4625,-1.4658,-1.4699,-1.472,-1.4774,-1.4785,-1.48,-1.4805,-1.4798,-1.4797,-1.4815,-1.4812,-1.4815,-1.4814,-1.4814,-1.4814,0,-1.4259,-1.4289,-1.4348,-1.4398,-1.4412,-1.4446,-1.449,-1.4523,-1.4547,-1.4596,-1.4609,-1.4648,-1.4697,-1.4728,-1.4789,-1.4804,-1.4863,-1.4867,-1.4848,-1.4851,-1.4877,-1.4874,-1.4957,-1.4969,-1.4912,-1.4913,-1.4913,0,-1.429,-1.4324,-1.4378,-1.4405,-1.443,-1.4473,-1.4503,-1.4531,-1.4561,-1.4613,-1.464,-1.469,-1.4731,-1.4808,-1.4843,-1.4891,-1.4896,-1.4922,-1.4903,-1.4896,-1.4897,-1.4895,-1.4899,-1.4925,-1.4925,-1.4925,-1.4926,0,-1.4341,-1.4355,-1.4396,-1.4444,-1.4478,-1.4517,-1.4556,-1.4577,-1.4612,-1.4645,-1.4695,-1.4727,-1.4791,-1.484,-1.4891,-1.4918,-1.4928,-1.4931,-1.494,-1.4934,-1.4922,-1.493,-1.4857,-1.4929,-1.4929,-1.4929,-1.4929,-1.4928,-1.4374,-1.4405,-1.4448,-1.4495,-1.4527,-1.4563,-1.4596,-1.4625,-1.4667,-1.4721,-1.4736,-1.4788,-1.4831,-1.4901,-1.4929,-1.4971,-1.4967,-1.498,-1.4984,-1.4986,-1.4987,-1.4915,-1.498,-1.498,-1.498,-1.498,-1.498,0,-1.4427,-1.4455,-1.4498,-1.4551,-1.4588,-1.4594,-1.4637,-1.4668,-1.4714,-1.4753,-1.4793,-1.4851,-1.49,-1.4938,-1.4988,-1.5015,-1.502,-1.5027,-1.5025,-1.5031,-1.4987,-1.4974,-1.5021,-1.5021,-1.5021,-1.5021,-1.5021,-1.5021,-1.4458,-1.4512,-1.4531,-1.4601,-1.4629,-1.468,-1.4705,-1.4738,-1.477,-1.4834,-1.4874,-1.4899,-1.4938,-1.4991,-1.5036,-1.5047,-1.5064,-1.507,-1.5081,-1.5039,-1.5034,-1.503,-1.5018,-1.5073,-1.5073,-1.5122,-1.5122,-1.5123]},{"header":{"parameterUnit":"m.s-1","parameterCategory":1,"la1":30.2991,"la2":30.254,"lo1":-89.0895,"lo2":-89.0444,"dy":0.0017,"dx":0.0017,"nx":28,"ny":28,"refTime":"2025-09-05T03:00:00:Z","depth":0,"parameterNumber":3,"parameterNumberName":"V-component_of_WINDS"},"data":[0,0,0,0,0,0,0,0,0,0,0,0,0,0,0,0,0,0,0,0,0,0,0,0,0,0,0,0,0,0,0,0,0,0,0,0,0,0,0,0,0,0,0,0,0,0,0,0,0,0,0,0,0,0,0,0,0,0,1.2626,1.2627,0,1.2683,1.2684,1.2685,1.2724,1.2725,1.2725,1.2725,1.2781,1.2782,1.2784,0,0,0,0,0,0,0,0,0,0,0,0,0,1.2549,1.2551,1.2626,1.2627,1.2628,1.2683,1.2684,1.2685,1.2724,1.2725,1.2725,1.2725,1.2781,1.2782,1.2784,0,0,0,0,0,0,0,0,0,0,0,0,0,1.2592,1.2551,1.2626,1.2654,1.2657,1.2683,1.2684,1.2685,1.2724,1.2725,1.2725,1.2726,1.278,1.2782,1.2784,1.2786,0,0,1.2789,1.279,0,0,0,0,0,0,0,0,1.259,1.2595,1.2649,1.2652,1.2656,1.2697,1.2677,1.2719,1.2724,1.2699,1.2725,1.2726,1.2753,1.2757,1.2766,1.2788,1.2791,1.279,1.2791,1.2791,1.2792,0,0,0,0,0,0,0,1.2587,1.2593,1.2649,1.265,1.2654,1.2663,1.267,1.2685,1.2722,1.2701,1.2704,1.271,1.2755,1.2765,1.2768,1.2791,1.279,1.2791,1.2792,1.2793,1.2818,1.2817,0,0,0,0,0,0,1.258,1.259,1.2647,1.265,1.2623,1.2664,1.2672,1.2683,1.2722,1.2729,1.271,1.2712,1.2761,1.2766,1.277,1.2775,1.2791,1.2793,1.2794,1.2818,1.2818,1.2817,0,0,0,0,0,0,1.2578,1.2584,1.2645,1.2621,1.2629,1.2665,1.2678,1.2684,1.2694,1.2729,1.2736,1.2713,1.2762,1.2768,1.2782,1.2777,1.2794,1.2796,1.2819,1.2818,1.2817,1.2784,0,0,0,0,0,0,1.2575,1.2583,1.2585,1.2621,1.2631,1.2656,1.2678,1.2685,1.2698,1.2701,1.2734,1.274,1.2763,1.2779,1.2783,1.278,1.2797,1.2819,1.2818,1.2817,1.2786,1.2782,1.2779,0,0,0,0,0,1.2573,1.2573,1.2585,1.2591,1.2633,1.2655,1.2661,1.2688,1.2697,1.2699,1.2721,1.2739,1.2777,1.278,1.2786,1.2783,1.2819,1.2818,1.2818,1.2787,1.2783,1.278,0,0,0,0,0,0,1.2534,1.2578,1.2592,1.2604,1.2626,1.2662,1.2665,1.2682,1.2701,1.2704,1.2735,1.2742,1.2753,1.2769,1.2772,1.2786,1.28,1.2801,1.2775,1.2772,1.2769,1.2764,1.2798,0,0,0,0,0,1.2527,1.2542,1.2579,1.2586,1.2597,1.2629,1.2639,1.2658,1.2682,1.2691,1.2714,1.2736,1.2753,1.2763,1.2781,1.2788,1.2796,1.2789,1.2786,1.2783,1.2783,1.2788,1.2785,1.2814,1.2814,1.2814,0,0,1.2513,1.2539,1.2546,1.2579,1.2598,1.2613,1.2636,1.265,1.2661,1.2693,1.2708,1.2726,1.2752,1.2763,1.2769,1.2777,1.2777,1.2782,1.278,1.2781,1.2787,1.2784,1.2782,1.2813,1.2813,1.2814,0,0,1.2494,1.2515,1.2523,1.2542,1.2571,1.2593,1.2595,1.2629,1.2642,1.2658,1.2682,1.2695,1.2723,1.2741,1.2754,1.2742,1.2759,1.2747,1.273,1.2735,1.2733,1.2731,1.2727,1.2725,1.2746,1.2746,1.2746,0,1.2472,1.2495,1.2525,1.2538,1.2551,1.2582,1.259,1.2607,1.264,1.2648,1.2657,1.2694,1.2714,1.2729,1.2726,1.2736,1.2738,1.2743,1.2731,1.2729,1.2728,1.2724,1.2723,1.2745,1.2745,1.2745,1.2745,0,1.2467,1.2483,1.2486,1.2518,1.2532,1.2542,1.2573,1.2583,1.2601,1.2621,1.2637,1.2662,1.2685,1.269,1.2707,1.2708,1.2712,1.2725,1.274,1.2723,1.272,1.2719,1.2742,1.2743,1.2743,1.2744,0,0,1.2425,1.2474,1.2474,1.2489,1.2524,1.2536,1.2548,1.2572,1.258,1.2602,1.2612,1.2636,1.2649,1.2663,1.2682,1.2686,1.2675,1.2699,1.2701,1.2694,1.2678,1.2667,1.2665,1.2687,1.2687,1.2687,1.2676,0,1.2411,1.2435,1.2462,1.2475,1.249,1.252,1.253,1.2552,1.2571,1.2586,1.2607,1.2623,1.2639,1.2648,1.2653,1.2675,1.2672,1.2677,1.2696,1.2697,1.2689,1.2664,1.2653,1.2641,1.2675,1.2674,1.2674,0,1.2398,1.2419,1.2435,1.2469,1.2476,1.2484,1.2508,1.2522,1.2548,1.2561,1.2578,1.2599,1.2612,1.2625,1.2643,1.2646,1.2655,1.2667,1.2667,1.267,1.2684,1.2665,1.2637,1.2636,1.2673,1.2673,1.2673,0,1.2366,1.2398,1.2412,1.2424,1.2463,1.2469,1.2485,1.2512,1.2524,1.2545,1.2553,1.2574,1.2586,1.2602,1.2628,1.2635,1.2643,1.2659,1.2654,1.2654,1.2655,1.2654,1.2628,1.2661,1.2661,1.2661,1.2661,0,1.2348,1.2356,1.2398,1.2406,1.2416,1.2447,1.2456,1.2475,1.2498,1.251,1.2537,1.2547,1.2581,1.2595,1.2615,1.2627,1.2632,1.2644,1.2649,1.2641,1.264,1.2648,1.2649,1.2661,1.2661,1.2661,1.2661,0,1.2313,1.2342,1.2359,1.2395,1.2404,1.241,1.2441,1.245,1.2471,1.2486,1.2491,1.2524,1.2542,1.257,1.2596,1.261,1.2618,1.2627,1.261,1.2613,1.2607,1.2607,1.2585,1.2584,1.2617,1.2617,1.2617,0,1.2299,1.2307,1.2344,1.2355,1.2371,1.2387,1.24,1.2431,1.2443,1.2473,1.2478,1.2499,1.2517,1.2545,1.257,1.2591,1.26,1.2591,1.2603,1.2595,1.26,1.2599,1.26,1.2587,1.2587,1.2586,1.2586,0,1.2272,1.2286,1.2305,1.2328,1.2343,1.2363,1.2384,1.2391,1.2426,1.2438,1.2458,1.2472,1.2499,1.2519,1.2543,1.256,1.2578,1.2582,1.2582,1.2574,1.2564,1.257,1.2602,1.2582,1.2583,1.2583,1.2583,1.2583,1.2248,1.2256,1.2283,1.2303,1.2322,1.2341,1.2352,1.2374,1.2391,1.2417,1.2434,1.2452,1.2477,1.2512,1.2527,1.2542,1.255,1.255,1.255,1.2549,1.2547,1.2562,1.2546,1.2546,1.2546,1.2546,1.2547,0,1.2222,1.2241,1.2259,1.2288,1.2303,1.2321,1.2345,1.2356,1.2373,1.2395,1.2413,1.2435,1.2455,1.2482,1.2504,1.251,1.2519,1.2515,1.2514,1.2518,1.2538,1.2536,1.2507,1.2507,1.2507,1.2507,1.2507,1.2507,1.221,1.2224,1.2242,1.2266,1.2285,1.2304,1.2317,1.2334,1.2352,1.2376,1.2393,1.2411,1.2436,1.2459,1.2478,1.2485,1.2492,1.2485,1.2495,1.2513,1.2516,1.252,1.2518,1.2486,1.2486,1.2473,1.2473,1.2473]}]]